Terminal Aerodrome Forecast
Issued by NWS Mt. Holly, NJ

Home | Current Version | Previous Version | Text Only | Print | Product List | Glossary On
Versions: 1 2 3 4 5 6 7 8 9 10 11 12 13 14 15 16 17 18 19 20 21 22 23 24 25 26 27 28 29 30 31
000
FTUS41 KPHI 291141
TAFTTN
TAF
KTTN 291141Z 2912/3012 05005KT P6SM OVC035
     FM291600 10010KT P6SM OVC030
      TEMPO 2917/2921 5SM -RA BR BKN020
     FM300000 09006KT 5SM -DZ BR OVC012
     FM300300 06005KT 3SM -DZ BR OVC006=

USA.gov is the U.S. government's official web portal to all federal, state and local government web resources and services.